Regional Weather Roundup
Issued by NWS

Home | Current Version | Previous Version | Graphics & Text | Print | Product List | Glossary Off
Versions: 1 2 3 4 5 6 7 8 9 10 11 12 13 14 15 16 17 18 19 20 21 22 23 24 25 26 27 28 29 30 31 32 33 34 35 36 37 38 39 40 41 42 43 44 45 46 47 48 49 50

000
ASUS43 KMKX 191900
RWRWI

WISCONSIN REGIONAL WEATHER ROUNDUP
NATIONAL WEATHER SERVICE MILWAUKEE/SULLIVAN WI
100 PM CST THU JAN 19 2017

NOTE: "FAIR" INDICATES FEW OR NO CLOUDS BELOW 12,000 FEET WITH NO
SIGNIFICANT WEATHER AND/OR OBSTRUCTIONS TO VISIBILITY.

WIZ001-002-006>008-014>016-023>028-192000-
NORTHWEST WISCONSIN

CITY           SKY/WX    TMP DP  RH WIND       PRES   REMARKS
SUPERIOR ARPT  SUNNY     44  34  66 SW5       29.73F
ASHLAND          N/A     45  35  68 S9        29.75F
HAYWARD        SUNNY     41  33  73 S9        29.77F
SIREN          SUNNY     43  33  66 S8        29.76F
CUMBERLAND     CLOUDY    32  32 100 SE8       29.78F FOG     WCI  25
RICE LAKE      CLOUDY    33  33  99 E8        29.81F FOG     WCI  27
CHETEK         CLOUDY    33  33 100 SE5       29.80F FOG     WCI  28
LADYSMITH      CLOUDY    36  35  97 S9        29.83S FOG     WCI  29
EAU CLAIRE     NOT AVBL
MENOMONIE        N/A    N/A N/A N/A MISG        N/A
NEW RICHMOND   SUNNY     39  32  75 S8        29.78F WCI  33
OSCEOLA        SUNNY     40  32  73 SE7       29.79F
$$

WIZ003>005-009-010-017-018-192000-
NORTH CENTRAL WISCONSIN

CITY           SKY/WX    TMP DP  RH WIND       PRES   REMARKS
MANITOWISH WTR SUNNY     38  35  89 S6        29.78F WCI  33
ARBOR VITAE    SUNNY     38  35  88 S5        29.79F WCI  34
WOODRUFF       SUNNY     38  35  88 S5        29.79F WCI  34
RHINELANDER    SUNNY     38  35  89 W5        29.80F WCI  34
EAGLE RIVER    SUNNY     38  34  85 W5        29.80F WCI  34
LAND O LAKES   MOSUNNY   39  35  83 SW5       29.80F
PHILLIPS       SUNNY     40  34  80 CALM      29.78F
TOMAHAWK       CLOUDY    34  32  92 S3        29.82F FOG
MEDFORD        FOG       31  31  99 S7        29.82S VSB<1/4 WCI  24
MERRILL        CLOUDY    34  34 100 S5          N/A  FOG     WCI  29
$$

WIZ029-030-035-036-043>047-192000-
CENTRAL WISCONSIN

CITY           SKY/WX    TMP DP  RH WIND       PRES   REMARKS
WAUSAU         CLOUDY    32  32 100 S7        29.82F FOG     WCI  26
MOSINEE        NOT AVBL
MARSHFIELD     FOG       32  31  96 S7        29.82F VSB 1/4 WCI  26
STEVENS POINT  FOG       31  31 100 SE3       29.85F VSB 3/4
WAUPACA        CLOUDY    36  34  93 CALM      29.89F FOG
WAUTOMA        CLOUDY    36  32  85 S3        29.89F FOG
WISC RAPIDS    CLOUDY    33  33 100 SE8       29.87S FOG     WCI  26
CAMP DOUGLAS   NOT AVBL
$$

WIZ011>013-019>022-031-037>040-048>050-192000-
NORTHEAST WISCONSIN

CITY           SKY/WX    TMP DP  RH WIND       PRES   REMARKS
ANTIGO         CLOUDY    32  32 100 SE7       29.84F FOG     WCI  26
SHAWANO        CLOUDY    36  33  91 CALM      29.89F FOG
OCONTO         NOT AVBL
STURGEON BAY   CLOUDY    34  33  96 S9        29.88F FOG     WCI  27
GREEN BAY      CLOUDY    34  34 100 S8        29.88F FOG     WCI  27
MANITOWOC      NOT AVBL
APPLETON       FOG       30  30 100 S6        29.85F VSB 1/8 WCI  24
CLINTONVILLE   FOG       32  32 100 S8        29.88F VSB 1/4 WCI  25
OSHKOSH        FOG       32  31  96 S8        29.89F VSB 1/4 WCI  25
$$

WIZ032>034-041-042-053>061-192000-
SOUTHWEST WISCONSIN

CITY           SKY/WX    TMP DP  RH WIND       PRES   REMARKS
LA CROSSE      CLOUDY    36  33  89 S10       29.86F FOG     WCI  28
SPARTA         SUNNY     42  33  69 S6        29.87S
VIROQUA        CLOUDY    33  33 100 S7        29.85F VSB 1/4 WCI  27
BOSCOBEL       CLOUDY    38  33  82 E3        29.87F HAZE
PRAIRIE DU CHI CLOUDY    34  32  92 E6        29.87F FOG     WCI  29
PLATTEVILLE    CLOUDY    37  37 100 NE5       29.86F WCI  33
$$

WIZ056-057-062-063-064-067-068-192000-
SOUTH CENTRAL WISCONSIN

CITY           SKY/WX    TMP DP  RH WIND       PRES   REMARKS
REEDSBURG      CLOUDY    33  33 100 S6        29.88S FOG     WCI  28
BARABOO/DELLS  MOSUNNY   35  34  94 S7        29.88S FOG     WCI  29
LONE ROCK      CLOUDY    36  33  89 E7        29.89F FOG     WCI  30
MINERAL POINT  CLOUDY    36  36 100 CALM      29.87F FOG
MADISON        CLOUDY    34  33  96 S6        29.91S FOG     WCI  29
MIDDLETON      CLOUDY    37  37 100 CALM      29.90S
WATERTOWN      CLOUDY    33  33 100 S5        29.91S FOG     WCI  29
MONROE         FOG       34  34 100 E3        29.88F VSB<1/4
JANESVILLE     FOG       36  36 100 E3        29.90F VSB 3/4
$$

WIZ051-052-058>065-066-070>072-192000-
SOUTHEAST WISCONSIN

CITY           SKY/WX    TMP DP  RH WIND       PRES   REMARKS
MILWAUKEE      CLOUDY    36  33  89 S5        29.92F FOG     WCI  32
WAUKESHA       CLOUDY    34  34 100 CALM      29.93S FOG
MILWAUKEE/TIMM CLOUDY    36  34  93 S5        29.92F FOG     WCI  32
RACINE         FOG       34  32  92 S7        29.94S VSB 1/2 WCI  28
KENOSHA        FOG       36  35  96 SE7       29.93S VSB 1/4 WCI  30
FOND DU LAC    CLOUDY    33  30  88 S8        29.89F FOG     WCI  26
SHEBOYGAN      FOG       33  32  96 S7        29.90F VSB 1/4 WCI  27
WEST BEND      FOG       32  32 100 CALM      29.90F VSB 1/4
JUNEAU         FOG       33  32  99 SE7       29.91F VSB<1/4 WCI  26
$$

LSZ147-162-192000-
LAKE SUPERIOR

STATION/POSITION TIME  TEMP    WIND        PRES    WAVE
                       AIR SEA DIR/SP/G            HT/PER
                 (UTC) (F)     (DEG/KT/KT) (MB)    (FT/S)
DEVILS ISLAND    1800   37     170/  8/ 10 1008.6F
PORT WING        1830   38      30/  6/  7 1007.5F
SAXON HARBOR     1840   49     220/  7/ 12 1007.5F
$$

LMZ867-665-643>646-192000-
LAKE MICHIGAN

STATION/POSITION TIME  TEMP    WIND        PRES    WAVE
                       AIR SEA DIR/SP/G            HT/PER
                 (UTC) (F)     (DEG/KT/KT) (MB)    (FT/S)
NORTHPORT PIER   1840   33     170/  5/ 10 1012.2F
SISTER BAY       1650   34     190/ 10/ 12   N/A
KEWAUNEE LAKESHO 1830   34     200/ 10/ 12 1012.7F
SHEBOYGAN LAKESH 1800   33     180/ 12/ 13 1013.8F
PORT WASHINGTON  1840   33     170/  6/  8 1014.2F
MILWAUKEE LAKESH 1830   33     140/  5/  6   N/A
KENOSHA   LAKESH 1800   34     140/  6/  7 1014.2
$$

TC  - TEMPERATURE IN CELSIUS
VSB - VISIBILITY IN STATUTE MILES
WCI - WIND CHILL INDEX
HX  - HEAT INDEX




USA.gov is the U.S. government's official web portal to all federal, state and local government web resources and services.